Home   Weather   Trenton   Past weeks

Flag for USA Past Weather in Trenton, New Jersey, USA — Yesterday and Last 2 Weeks

Now
43 °F

Passing clouds.


Feels Like: 40 °F
Forecast: 37 / 50 °F
Wind: 5 mph from North

Location: Mercer County Airport

Current Time: Jan 19, 2017 at 6:59:45 pm

Latest Report: Jan 19, 2017 at 5:53 pm


Visibility: 10 mi

Pressure: 30.01 "Hg

Humidity: 71%

Dew Point: 34 °F

Location of TrentonLocation

Past Weather in Trenton — Graph

°F

Trenton Temperature Yesterday

Maximum temperature yesterday: 44 °F (at 3:02 pm)
Minimum temperature yesterday: 38 °F (at 4:53 am)
Average temperature yesterday: 41 °F

High & Low Weather Summary for the Past Weeks

 TemperatureHumidityPressure
High65 °F (Jan 12, 12:53 pm)100% (Jan 17, 8:16 pm)30.76 "Hg (Jan 17, 8:16 pm)
Low8 °F (Jan 9, 3:53 am)31% (Jan 4, 6:53 pm)29.58 "Hg (Jan 4, 5:53 pm)
Average34 °F71%30.22 "Hg
* Reported Jan 4 5:53 pm — Jan 19 5:53 pm, Trenton, Weather by CustomWeather, © 2017

Note: Actual official high and low records may vary slightly from our data, if they occured in-between our weather recording intervals... More about our weather records

Advertising

Trenton Weather History for the Previous 24 Hours

Scroll right to see more
 ConditionsComfort  
Time TempWeatherWind HumidityBarometerVisibility
5:53 pm
Thu, Jan 19
43 °FPassing clouds.5 mph71%30.01 "Hg10 mi
4:53 pm44 °FOvercast.5 mph68%30.00 "Hg10 mi
3:53 pm44 °FOvercast.6 mph68%29.99 "Hg10 mi
2:53 pm44 °FOvercast.10 mph71%29.99 "Hg10 mi
1:53 pm45 °FOvercast.8 mph68%30.01 "Hg10 mi
12:53 pm46 °FOvercast.9 mph66%30.00 "Hg10 mi
11:53 am46 °FOvercast.8 mph68%30.02 "Hg10 mi
10:53 am44 °FPartly sunny.9 mph71%30.05 "Hg10 mi
9:53 am43 °FOvercast.7 mph79%30.06 "Hg10 mi
7:53 am38 °FSunny.3 mph93%30.04 "Hg10 mi
6:53 am38 °FPassing clouds.3 mph93%30.03 "Hg10 mi
5:53 am39 °FPassing clouds.3 mph93%30.01 "Hg10 mi
4:53 am41 °FOvercast.No wind89%30.01 "Hg10 mi
3:53 am41 °FOvercast.3 mph93%30.02 "Hg10 mi
3:42 am41 °FOvercast.No wind93%30.04 "Hg10 mi
3:22 am41 °FMostly cloudy.3 mph89%30.04 "Hg10 mi
2:53 am41 °FOvercast.3 mph89%30.02 "Hg10 mi
1:53 am42 °FOvercast.3 mph85%30.02 "Hg10 mi
1:35 am41 °FMostly cloudy.3 mph89%30.03 "Hg10 mi
12:53 am41 °FOvercast.3 mph89%30.01 "Hg10 mi
11:53 pm
Wed, Jan 18
41 °FOvercast.3 mph89%30.01 "Hg10 mi
10:53 pm41 °FOvercast.No wind89%30.01 "Hg10 mi
9:53 pm40 °FOvercast.No wind93%30.02 "Hg10 mi
8:53 pm41 °FOvercast.5 mph86%30.01 "Hg10 mi
7:53 pm42 °FMostly cloudy.3 mph85%30.02 "Hg10 mi
6:53 pm43 °FMostly cloudy.5 mph82%30.02 "Hg10 mi
6:44 pm43 °FMostly cloudy.5 mph82%30.03 "Hg10 mi
6:05 pm43 °FMostly cloudy.6 mph82%30.02 "Hg10 mi
Weather by CustomWeather, © 2017

See weather overviewHow to use our weather pages